User: anonymous   Login
Location: Iola
(37.9240°N, 95.4000°W)
Time: 21:04:43
(UTC-05:00)
Language:

Meteor 2-10 Rocket - Orbit

View from above orbital plane
View from above orbital plane
View from above satellite
View from above satellite

Ground track
Ground track

The orbit data is extracted from the following two-line orbital elements,

1 14453U 83109B   17289.32544715  .00000037  00000-0  94739-5 0  9993
2 14453  81.1682 344.4423 0106058  73.4836 287.7962 14.24681978764772
Epoch (UTC): 16 October 2017 07:48:38
Eccentricity: 0.0106058
inclination: 81.1682°
perigee height: 733 km
apogee height: 886 km
right ascension of ascending node: 344.4423°
argument of perigee: 73.4836°
revolutions per day: 14.24681978
mean anomaly at epoch: 287.7962°
orbit number at epoch: 76477

The dashed part of the orbit path shows where the satellite is in the earth's shadow,  

DLR